Wind_Speed
9 6 14 26 12 9 5 11 11 10 2 2 10 11 11 10 10 10 9 9 10 9 11 17 22 27 28 28 29 31 32 32 31 31 30 31 31 31 30 28 28 29 28 29
6 16 21 9 13 13 11 7 13 14 5 3 8 14 11 14 12 10 10 10 10 9 9 12 19 24 29 32 33 30 33 34 35 32 34 30 29 30 33 31 31 31 31 31
19 16 13 14 14 13 12 15 8 4 11 6 9 16 16 20 18 21 21 17 12 12 10 10 15 24 29 33 35 35 35 33 36 35 29 28 26 28 28 34 35 35 35 35
15 17 16 20 22 16 16 12 8 8 2 2 5 9 9 10 15 13 16 20 16 14 15 12 13 17 31 36 35 36 34 35 35 35 32 32 32 28 33 31 31 35 37 38
10 17 15 17 21 16 6 14 17 10 9 3 11 6 5 10 9 10 12 9 11 10 9 9 11 25 24 34 34 37 37 37 37 36 37 34 33 32 29 29 31 34 36 39
17 3 15 21 16 21 8 4 11 8 7 7 10 13 6 10 13 11 6 6 7 6 3 1 5 7 6 7 16 32 34 36 37 38 38 39 35 32 29 30 32 31 34 38
18 13 5 6 13 9 12 11 4 5 5 9 7 11 15 6 10 3 2 5 7 9 9 9 9 12 14 12 14 12 27 33 34 36 37 39 40 35 35 34 33 31 32 34
8 9 16 10 11 10 20 13 4 7 6 4 1 7 6 10 3 7 6 6 8 9 8 8 6 9 11 12 15 16 21 25 30 31 37 39 39 38 37 36 34 35 34 35
5 7 9 15 7 13 10 10 1 3 4 2 5 7 8 10 4 4 6 7 8 8 7 5 6 6 6 10 11 12 16 22 26 29 33 34 36 36 37 37 36 35 34 33
6 1 3 11 3 2 9 8 5 3 7 5 5 5 6 2 3 6 8 9 8 7 3 4 6 10 10 9 12 13 12 17 21 24 29 32 34 36 36 35 34 35 36 35
7 2 3 1 5 10 4 8 2 2 1 4 2 4 3 5 13 10 8 7 7 5 1 4 6 11 16 16 13 13 12 12 16 18 21 26 30 33 34 34 35 36 36 36
6 3 2 2 3 5 2 4 7 4 5 3 3 5 6 5 8 10 8 7 5 4 3 4 7 11 20 21 20 15 16 16 16 16 19 24 27 30 31 35 35 35 36 36
10 3 3 5 2 8 5 4 5 6 3 5 4 5 3 12 8 6 6 7 4 4 4 5 6 9 16 20 21 22 20 20 20 17 18 21 25 28 30 33 35 33 34 35
12 4 5 2 6 3 4 16 16 13 2 4 7 9 15 11 8 6 8 7 6 6 5 6 7 8 17 20 22 24 26 23 23 20 20 21 24 26 28 30 31 32 33 35
7 5 4 6 3 6 7 7 14 20 18 8 20 17 15 6 3 5 6 7 6 8 7 9 8 7 14 22 27 28 27 30 27 24 22 24 23 24 27 27 29 30 33 35
2 1 1 2 1 1 8 7 6 13 13 10 19 22 7 5 6 7 7 6 7 11 12 9 8 8 13 21 26 30 32 34 30 27 27 25 23 23 26 29 29 31 32 33
6 4 3 3 1 4 2 14 10 5 8 9 14 23 4 9 7 5 6 13 14 8 8 9 10 14 22 25 30 31 33 38 36 31 32 30 26 27 28 27 29 31 34 34
6 6 2 2 4 2 7 3 13 17 17 14 15 18 18 17 5 6 14 13 12 13 13 13 17 24 28 29 30 32 33 39 39 36 37 36 32 31 29 26 28 33 33 35
7 4 2 4 3 4 8 4 5 5 7 8 11 14 12 10 4 6 14 12 10 10 12 17 21 25 28 31 32 33 34 32 37 41 41 42 39 35 31 30 31 33 34 34
5 6 2 2 3 6 4 2 2 4 4 16 14 12 13 9 3 2 18 14 13 15 17 22 27 28 28 31 34 34 31 31 29 35 41 45 40 38 34 34 34 34 35 36
4 2 5 3 3 7 5 1 4 6 3 10 13 13 12 5 5 10 13 17 21 22 27 31 28 27 27 32 36 35 30 28 34 38 42 44 42 39 38 36 34 30 31 33
6 6 4 3 3 5 3 4 2 4 8 12 11 12 10 10 11 12 12 13 18 22 27 28 30 29 30 30 31 34 32 34 37 38 38 40 42 39 35 33 32 29 28 27
3 5 5 7 4 3 12 15 11 10 4 9 10 12 13 14 15 15 15 14 16 22 28 30 27 35 32 29 29 34 36 37 41 40 38 36 37 35 32 30 27 26 27 26
2 1 2 4 7 7 13 12 12 10 10 10 11 12 13 15 14 16 15 14 17 21 24 28 33 31 37 33 33 30 34 42 40 39 39 36 30 27 26 25 24 25 25 25
0 3 2 1 7 7 11 13 15 13 12 14 14 14 14 15 16 16 16 16 21 24 28 27 29 32 33 37 37 41 37 37 36 38 36 34 29 24 24 26 26 29 32 33
5 4 1 2 6 4 6 15 15 15 18 17 19 21 21 20 18 21 15 23 25 27 29 29 29 30 32 34 42 42 37 32 36 36 31 29 29 25 24 23 22 30 33 33
Wind_Direction
175 180 211 208 198 189 282 327 325 319 12 6 254 264 263 266 261 248 230 233 258 268 264 212 205 206 209 212 217 216 209 210 207 208 212 212 213 216 220 223 220 217 220 222
191 210 215 189 194 200 225 281 286 294 4 7 304 282 275 279 273 275 259 249 250 241 250 250 226 208 205 209 217 221 216 211 208 206 211 214 214 214 218 223 225 222 218 219
207 226 212 179 178 184 201 213 204 248 332 311 302 281 271 260 261 252 255 257 244 240 246 244 224 214 207 209 212 217 220 216 213 209 209 213 220 221 218 220 222 221 219 219
212 218 198 184 188 183 197 189 185 175 168 251 25 294 282 274 257 235 238 238 236 241 235 238 252 221 209 213 215 218 218 218 219 216 209 205 209 213 218 219 218 219 221 222
197 186 179 201 192 183 200 163 199 189 183 209 239 261 248 226 254 251 252 237 215 227 240 246 235 244 252 224 217 220 217 218 218 217 214 214 214 218 220 219 221 223 221 225
216 190 198 206 191 193 169 198 187 205 203 229 223 214 224 232 240 245 230 247 238 253 266 246 336 334 298 280 231 218 215 220 221 218 217 216 218 217 217 217 216 217 218 222
211 217 214 160 196 174 156 149 181 199 208 230 196 199 244 295 282 272 63 49 36 37 22 14 5 348 338 322 291 250 225 225 225 222 219 220 220 219 219 217 216 215 219 219
213 175 189 192 203 182 187 168 181 196 179 212 27 236 264 226 256 41 48 83 75 66 57 38 3 352 344 331 318 278 260 245 234 231 226 224 223 220 222 223 219 220 221 221
196 234 194 183 189 161 172 202 292 96 20 69 210 240 284 260 246 158 124 96 88 77 77 37 0 7 347 333 323 300 273 259 251 244 242 233 230 227 227 228 226 226 226 225
170 318 242 185 101 248 175 141 159 235 153 206 246 243 240 125 128 77 77 90 72 78 65 0 340 341 338 318 332 342 315 285 269 257 249 245 237 233 232 233 232 230 230 229
162 270 263 182 199 183 153 170 177 180 149 171 161 245 318 101 113 101 92 95 122 150 343 340 315 322 326 322 320 316 330 311 277 264 259 250 248 242 238 237 236 236 235 230
143 155 233 19 192 321 183 149 182 210 156 239 118 267 282 75 126 119 137 170 161 159 242 284 304 316 317 320 322 316 316 311 305 271 259 255 251 248 243 241 241 238 238 235
158 175 162 169 307 157 206 198 265 300 62 190 142 268 250 71 91 129 117 88 86 93 1 314 306 322 320 328 329 323 316 309 308 292 272 260 253 252 250 243 240 239 237 235
165 168 171 139 41 91 193 190 205 227 183 176 230 247 279 309 334 2 11 3 17 0 325 302 315 324 324 328 329 324 317 311 309 293 282 269 261 255 249 249 246 243 239 236
157 184 218 258 193 124 297 231 202 207 222 212 247 252 250 257 332 353 338 322 333 313 326 314 322 317 327 330 331 327 323 316 310 300 287 281 276 263 253 247 243 243 242 241
145 229 182 274 294 321 175 229 266 230 243 251 259 270 293 261 1 346 325 312 325 315 310 322 318 328 338 348 336 329 325 322 315 302 295 296 284 270 255 252 244 242 241 239
158 117 102 257 143 71 349 228 227 252 244 233 251 259 320 288 280 283 302 293 291 307 332 352 360 0 349 341 332 324 323 326 320 306 302 298 290 276 264 257 250 246 238 234
143 119 93 163 53 205 239 183 207 227 244 249 263 271 276 282 295 312 46 33 18 12 13 7 355 347 341 333 332 328 330 330 327 315 303 299 292 286 271 258 247 247 245 241
29 144 120 161 190 312 309 246 197 175 260 247 254 269 275 292 294 101 25 17 19 6 358 349 346 339 333 333 334 329 327 325 321 313 310 308 300 292 278 263 251 245 243 241
48 48 112 113 180 216 256 328 209 127 282 29 25 30 16 345 12 37 348 354 353 355 352 347 338 333 331 328 328 324 321 321 315 315 312 310 305 296 283 271 258 247 242 240
140 143 203 184 219 275 246 332 12 127 245 30 22 25 19 25 359 325 337 338 343 336 336 334 331 322 321 322 322 317 318 314 315 315 314 312 306 296 286 277 262 247 237 238
154 155 180 162 191 285 357 82 178 9 42 18 9 14 359 340 324 330 335 333 329 329 326 325 318 318 319 318 320 313 313 316 315 312 308 306 307 299 282 268 259 245 234 226
163 174 181 179 168 63 47 88 63 36 24 12 3 359 348 336 333 329 325 326 323 321 316 316 319 315 314 314 317 311 312 318 316 310 304 301 301 297 279 260 244 230 222 224
275 344 154 85 2 84 102 76 41 11 26 6 360 341 335 325 323 317 318 318 317 313 313 318 314 311 309 313 314 309 316 314 309 304 302 301 294 280 272 255 241 232 218 216
336 357 223 207 58 113 88 44 5 6 -0 351 342 340 332 324 319 317 315 314 316 316 313 311 310 304 304 311 311 312 312 310 305 305 301 298 292 276 265 250 241 235 235 221
7 24 50 120 53 341 298 347 2 1 348 343 338 332 332 326 316 318 316 316 314 314 312 307 305 306 305 310 307 308 312 310 307 300 299 298 293 280 266 257 248 241 244 238
Height
812 819 815 813 826 828 841 848 833 813 811 813 812 809 801 792 791 792 791 790 788 785 781 780 782 786 790 796 799 801 804 807 810 813 816 818 818 821 824 826 829 830 832 834
815 807 800 807 817 828 838 839 841 829 817 821 820 813 802 793 789 787 785 783 782 780 778 777 778 780 782 786 791 796 797 800 802 805 807 811 813 815 816 821 822 823 825 827
798 791 800 808 820 828 829 834 835 842 834 825 827 815 805 789 785 781 777 774 772 773 774 772 772 773 776 778 781 785 790 794 795 797 802 807 810 811 812 812 814 815 817 819
793 789 795 802 810 811 823 825 825 834 844 845 830 825 801 785 774 769 767 766 765 766 762 763 765 765 766 768 773 778 782 785 789 793 795 795 796 799 800 803 806 807 810 812
784 783 797 800 798 807 810 813 823 828 833 842 837 840 797 781 778 770 762 757 756 756 759 760 759 760 763 764 765 768 772 775 778 783 786 788 789 790 793 797 799 801 802 804
778 773 781 783 792 797 801 810 821 823 830 835 823 826 788 780 768 756 753 751 751 753 754 754 756 757 758 761 762 762 765 768 771 773 776 779 780 783 787 788 789 791 793 794
777 779 775 778 792 792 800 816 826 830 831 822 796 813 781 761 753 751 751 752 753 756 756 757 758 758 759 760 760 761 762 762 763 765 767 769 771 775 776 778 779 782 783 784
785 785 778 774 777 781 792 797 812 813 819 811 794 804 778 748 745 753 753 753 756 761 763 765 763 762 762 761 760 759 759 758 758 759 759 761 763 764 766 768 769 771 773 774
780 776 769 769 770 776 789 795 791 806 836 818 798 777 763 747 750 750 754 755 760 764 766 765 764 762 762 761 757 755 754 753 753 755 755 756 757 759 759 760 763 763 765 767
791 783 777 770 774 777 774 785 804 804 813 814 791 779 773 754 750 755 761 760 765 766 764 765 764 761 759 757 754 752 751 749 748 749 749 750 750 751 753 755 756 756 758 759
780 787 780 775 774 774 779 780 786 793 800 800 800 783 749 746 756 763 764 766 763 764 763 762 760 757 755 753 752 750 746 744 742 742 742 743 744 744 746 748 749 749 751 752
773 785 781 773 769 769 765 771 780 786 794 797 800 791 746 749 757 756 761 759 760 762 762 760 759 755 752 750 749 747 745 742 740 738 737 737 737 737 737 738 740 742 743 745
771 784 777 780 783 776 776 778 779 777 793 797 804 787 746 748 756 753 757 763 762 758 759 758 756 755 753 751 749 746 743 740 737 736 734 731 730 731 730 730 731 733 735 737
759 770 768 769 768 765 770 774 777 782 789 788 788 773 760 758 759 757 759 759 758 757 756 755 754 752 750 749 746 743 739 737 734 732 730 727 725 725 724 725 726 727 728 730
758 774 767 761 760 771 774 768 768 775 777 781 766 768 761 762 760 761 759 757 755 756 754 752 752 750 748 746 743 740 735 733 730 728 726 723 720 719 719 718 718 719 721 722
752 778 762 778 763 762 771 772 768 764 766 768 761 758 754 754 757 761 760 758 758 756 752 751 750 748 746 745 743 739 733 728 726 724 722 720 717 714 712 712 711 711 713 714
757 777 785 792 766 768 782 770 767 766 763 763 769 748 757 756 758 759 758 756 753 753 753 754 755 753 750 748 745 739 733 727 724 721 718 715 711 708 706 706 707 706 704 706
762 779 789 808 796 794 763 749 755 760 757 758 756 749 749 749 755 756 765 766 763 762 761 762 762 757 753 749 743 738 733 729 723 718 713 709 706 703 701 700 700 701 702 701
765 772 781 793 813 778 761 752 754 758 759 754 755 751 750 747 748 766 771 773 773 771 769 767 765 761 754 748 743 738 733 728 723 714 708 703 700 697 695 694 693 693 695 695
776 775 780 794 800 806 753 751 744 750 777 778 765 772 772 757 757 773 773 772 771 772 770 766 763 760 754 748 743 737 731 726 720 715 707 700 695 691 688 686 685 687 687 687
783 781 780 783 790 784 756 749 748 775 781 791 788 790 787 784 792 789 784 777 776 773 766 763 762 760 754 749 742 732 729 724 718 712 704 695 688 684 682 681 680 680 681 683
774 776 785 785 795 804 751 754 761 794 796 799 800 801 799 797 792 788 786 783 778 773 768 768 761 754 752 748 742 732 726 721 715 709 700 691 683 678 675 675 674 674 677 677
772 760 772 768 778 776 783 794 806 808 806 807 806 805 802 797 793 790 786 784 781 777 772 766 760 752 747 743 741 730 722 717 708 701 694 686 678 672 670 669 669 669 670 672
755 750 767 763 781 783 797 804 811 812 811 812 812 810 806 801 798 792 788 784 781 776 771 766 759 750 741 738 733 729 722 715 706 695 686 679 672 667 664 663 664 663 659 660
777 759 768 769 798 798 801 811 814 813 815 814 813 811 808 803 797 794 788 783 778 775 771 766 759 750 740 733 725 722 718 712 700 690 681 673 667 661 657 653 653 653 650 648
806 812 789 797 823 822 811 814 815 816 815 814 810 803 805 804 797 791 786 784 779 773 768 762 755 749 741 734 724 716 711 706 698 686 677 670 663 656 652 648 644 643 644 644